When you browse on this site, cookies collect data to enhance your experience and personalize the content and advertising you see.
Visit our Privacy Policy to learn more. By continuing to use the site, you agree to this use of cookies and data.

Hourly Weather Durham

Today, 3 July, Friday

Time Temperature Precipitation Wind Pressure Humidity
00:00 +10°C° 0.1 mm 3 mps 753 mmHg 92%
01:00 +10°C° 0 mm 3 mps 753 mmHg 92%
02:00 +11°C° 0 mm 3 mps 752 mmHg 91%
03:00 +11°C° 0 mm 4 mps 752 mmHg 90%
04:00 +11°C° 0.1 mm 4 mps 752 mmHg 90%
05:00 +11°C° 0.1 mm 4 mps 751 mmHg 89%
06:00 +11°C° 0.1 mm 4 mps 751 mmHg 89%
07:00 +12°C° 0.3 mm 5 mps 751 mmHg 89%
08:00 +11°C° 0.3 mm 6 mps 750 mmHg 89%
09:00 +11°C° 0.3 mm 7 mps 750 mmHg 89%
10:00 +12°C° 0.2 mm 7 mps 750 mmHg 90%
11:00 +12°C° 0.2 mm 8 mps 749 mmHg 90%
12:00 +13°C° 0.2 mm 8 mps 749 mmHg 91%
13:00 +13°C° 0.1 mm 8 mps 749 mmHg 90%
14:00 +15°C° 0.1 mm 8 mps 748 mmHg 90%
15:00 +15°C° 0.1 mm 8 mps 748 mmHg 89%
16:00 +15°C° 0.3 mm 8 mps 748 mmHg 90%
17:00 +15°C° 0.3 mm 7 mps 748 mmHg 91%
18:00 +15°C° 0.3 mm 6 mps 748 mmHg 92%
19:00 +14°C° 0.1 mm 5 mps 749 mmHg 92%
20:00 +14°C° 0.1 mm 5 mps 749 mmHg 92%
21:00 +14°C° 0.1 mm 4 mps 749 mmHg 91%
22:00 +14°C° 0 mm 4 mps 749 mmHg 92%
23:00 +14°C° 0 mm 3 mps 749 mmHg 92%

Tomorrow, 4 July, Saturday

Time Temperature Precipitation Wind Pressure Humidity
00:00 +13°C° 0 mm 3 mps 749 mmHg 93%
01:00 +14°C° 0 mm 3 mps 749 mmHg 93%
02:00 +14°C° 0 mm 3 mps 749 mmHg 94%
03:00 +15°C° 0 mm 2 mps 749 mmHg 94%
04:00 +14°C° 0.1 mm 3 mps 748 mmHg 95%
05:00 +14°C° 0.1 mm 3 mps 748 mmHg 95%
06:00 +16°C° 0.1 mm 3 mps 748 mmHg 95%
07:00 +15°C° 0.4 mm 4 mps 747 mmHg 95%
08:00 +15°C° 0.4 mm 4 mps 747 mmHg 94%
09:00 +16°C° 0.4 mm 5 mps 746 mmHg 93%
10:00 +16°C° 0.2 mm 6 mps 746 mmHg 92%
11:00 +16°C° 0.2 mm 6 mps 746 mmHg 91%
12:00 +17°C° 0.2 mm 7 mps 745 mmHg 89%
13:00 +17°C° 0 mm 7 mps 745 mmHg 88%
14:00 +17°C° 0 mm 7 mps 746 mmHg 87%
15:00 +17°C° 0 mm 7 mps 746 mmHg 85%
16:00 +17°C° 0.1 mm 7 mps 746 mmHg 83%
17:00 +17°C° 0.1 mm 7 mps 747 mmHg 81%
18:00 +17°C° 0.1 mm 7 mps 747 mmHg 79%
19:00 +16°C° 0 mm 6 mps 747 mmHg 83%
20:00 +14°C° 0 mm 5 mps 748 mmHg 86%
21:00 +13°C° 0 mm 4 mps 748 mmHg 89%
22:00 +13°C° 0 mm 4 mps 748 mmHg 89%
23:00 +12°C° 0 mm 4 mps 747 mmHg 89%

Day after tomorrow, 5 July, Sunday

Time Temperature Precipitation Wind Pressure Humidity
00:00 +12°C° 0 mm 4 mps 747 mmHg 89%
01:00 +12°C° 0.1 mm 4 mps 746 mmHg 90%
02:00 +13°C° 0.1 mm 5 mps 745 mmHg 90%
03:00 +13°C° 0.1 mm 5 mps 744 mmHg 91%
04:00 +14°C° 0.4 mm 7 mps 743 mmHg 90%
05:00 +15°C° 0.4 mm 8 mps 742 mmHg 89%
06:00 +16°C° 0.4 mm 9 mps 740 mmHg 88%
07:00 +14°C° 0.1 mm 11 mps 741 mmHg 82%
08:00 +14°C° 0.1 mm 13 mps 741 mmHg 77%
09:00 +13°C° 0.1 mm 15 mps 741 mmHg 71%
10:00 +14°C° 0 mm 14 mps 742 mmHg 69%
11:00 +14°C° 0 mm 13 mps 743 mmHg 67%
12:00 +14°C° 0 mm 12 mps 745 mmHg 64%
13:00 +14°C° 0 mm 11 mps 745 mmHg 64%
14:00 +16°C° 0 mm 11 mps 745 mmHg 63%
15:00 +16°C° 0 mm 10 mps 746 mmHg 63%
16:00 +15°C° 0.1 mm 9 mps 746 mmHg 66%
17:00 +15°C° 0.1 mm 9 mps 746 mmHg 68%
18:00 +13°C° 0.1 mm 9 mps 746 mmHg 71%
19:00 +12°C° 0 mm 8 mps 746 mmHg 73%
20:00 +11°C° 0 mm 7 mps 746 mmHg 74%
21:00 +10°C° 0 mm 6 mps 746 mmHg 76%
22:00 +10°C° 0 mm 6 mps 746 mmHg 78%
23:00 +10°C° 0 mm 6 mps 746 mmHg 80%

6 July, Monday

Time Temperature Precipitation Wind Pressure Humidity
00:00 +10°C° 0 mm 6 mps 746 mmHg 82%
01:00 +9°C° 0 mm 7 mps 746 mmHg 83%
02:00 +9°C° 0 mm 7 mps 747 mmHg 83%
03:00 +9°C° 0 mm 8 mps 747 mmHg 83%
04:00 +9°C° 0 mm 7 mps 748 mmHg 82%
05:00 +10°C° 0 mm 7 mps 749 mmHg 81%
06:00 +10°C° 0 mm 6 mps 750 mmHg 80%
07:00 +11°C° 0 mm 7 mps 751 mmHg 76%
08:00 +12°C° 0 mm 7 mps 752 mmHg 71%
09:00 +14°C° 0 mm 7 mps 754 mmHg 67%
10:00 +14°C° 0.1 mm 7 mps 755 mmHg 65%
11:00 +15°C° 0.1 mm 6 mps 755 mmHg 63%
12:00 +15°C° 0.1 mm 6 mps 756 mmHg 61%
13:00 +15°C° 0.1 mm 5 mps 757 mmHg 62%
14:00 +15°C° 0.1 mm 5 mps 758 mmHg 63%
15:00 +15°C° 0.1 mm 4 mps 759 mmHg 64%
16:00 +15°C° 0.1 mm 4 mps 759 mmHg 66%
17:00 +15°C° 0.1 mm 4 mps 759 mmHg 68%
18:00 +15°C° 0.1 mm 4 mps 760 mmHg 71%
19:00 +13°C° 0 mm 4 mps 760 mmHg 73%
20:00 +12°C° 0 mm 5 mps 760 mmHg 75%
21:00 +10°C° 0 mm 5 mps 761 mmHg 77%
22:00 +9°C° 0 mm 5 mps 761 mmHg 79%
23:00 +8°C° 0 mm 5 mps 761 mmHg 81%

7 July, Tuesday

Time Temperature Precipitation Wind Pressure Humidity
00:00 +8°C° 0 mm 5 mps 761 mmHg 82%
01:00 +8°C° 0 mm 5 mps 761 mmHg 84%
02:00 +8°C° 0 mm 5 mps 761 mmHg 85%
03:00 +8°C° 0 mm 5 mps 760 mmHg 86%
04:00 +9°C° 0 mm 5 mps 761 mmHg 84%
05:00 +9°C° 0 mm 6 mps 761 mmHg 83%
06:00 +10°C° 0 mm 6 mps 761 mmHg 81%
07:00 +11°C° 0 mm 6 mps 761 mmHg 77%
08:00 +13°C° 0 mm 5 mps 761 mmHg 73%
09:00 +14°C° 0 mm 5 mps 761 mmHg 69%
10:00 +15°C° 0 mm 5 mps 761 mmHg 68%
11:00 +15°C° 0 mm 5 mps 761 mmHg 67%
12:00 +17°C° 0 mm 4 mps 761 mmHg 66%
13:00 +17°C° 0.1 mm 4 mps 761 mmHg 66%
14:00 +17°C° 0.1 mm 4 mps 761 mmHg 66%
15:00 +18°C° 0.1 mm 3 mps 761 mmHg 66%
16:00 +15°C° 0.1 mm 4 mps 761 mmHg 69%
17:00 +14°C° 0.1 mm 4 mps 761 mmHg 73%
18:00 +13°C° 0.1 mm 4 mps 760 mmHg 77%
19:00 +12°C° 0 mm 3 mps 761 mmHg 79%
20:00 +13°C° 0 mm 2 mps 761 mmHg 81%
21:00 +12°C° 0 mm 2 mps 761 mmHg 84%
22:00 +10°C° 0 mm 2 mps 760 mmHg 85%
23:00 +10°C° 0 mm 2 mps 760 mmHg 85%

8 July, Wednesday

Time Temperature Precipitation Wind Pressure Humidity
00:00 +9°C° 0 mm 2 mps 760 mmHg 86%
01:00 +9°C° 0 mm 3 mps 759 mmHg 86%
02:00 +9°C° 0 mm 3 mps 759 mmHg 86%
03:00 +8°C° 0 mm 4 mps 759 mmHg 86%
04:00 +10°C° 0 mm 4 mps 758 mmHg 84%
05:00 +11°C° 0 mm 4 mps 758 mmHg 82%
06:00 +12°C° 0 mm 5 mps 758 mmHg 80%
07:00 +13°C° 0 mm 5 mps 757 mmHg 78%
08:00 +14°C° 0 mm 5 mps 757 mmHg 76%
09:00 +15°C° 0 mm 6 mps 757 mmHg 74%
10:00 +15°C° 0 mm 6 mps 757 mmHg 75%
11:00 +16°C° 0 mm 6 mps 756 mmHg 76%
12:00 +16°C° 0 mm 7 mps 756 mmHg 76%
13:00 +15°C° 0 mm 7 mps 756 mmHg 78%
14:00 +15°C° 0 mm 7 mps 756 mmHg 80%
15:00 +14°C° 0 mm 7 mps 755 mmHg 82%
16:00 +15°C° 0 mm 6 mps 755 mmHg 82%
17:00 +15°C° 0 mm 6 mps 755 mmHg 83%
18:00 +15°C° 0 mm 6 mps 755 mmHg 83%
19:00 +14°C° 0 mm 5 mps 755 mmHg 85%
20:00 +13°C° 0 mm 5 mps 755 mmHg 86%
21:00 +12°C° 0 mm 4 mps 755 mmHg 87%
22:00 +12°C° 0 mm 4 mps 755 mmHg 88%
23:00 +11°C° 0 mm 4 mps 754 mmHg 88%
Show more